Simultaneous Nadir Overpasses (SNOs) Predictions

Prediction of SNOs between GOES-16 and NOAA-19 Satellite Orbit:

Table of predicted SNOs for the next 14.0 days since TLE Epoch: 4/2/2022
Index Date Time (GOES-16) GOES-16 Lat,Lon NOAA-19 Lat,Lon Distance(km) Time Diff (sec)
1 04/02/2022 12:31:35 0.04, -75.22 -0.22, -74.08 130.75 80
2 04/03/2022 12:19:47 0.04, -75.23 -0.89, -71.19 459.85 80
3 04/05/2022 00:55:03 -0.04, -75.21 -0.94, -79.00 432.65 80
4 04/06/2022 00:43:15 -0.04, -75.22 -0.26, -76.12 103.22 80
5 04/07/2022 00:28:46 -0.03, -75.22 0.43, -73.24 226.32 80
6 04/09/2022 12:52:00 0.04, -75.26 0.70, -78.11 325.59 80
7 04/10/2022 12:37:32 0.03, -75.27 0.03, -75.23 4.27 80
8 04/11/2022 12:25:43 0.03, -75.28 -0.65, -72.35 334.32 80
9 04/14/2022 00:49:09 -0.04, -75.30 -0.47, -77.27 225.22 80
10 04/15/2022 00:34:40 -0.03, -75.31 0.17, -74.38 105.59 80
11 04/16/2022 00:22:51 -0.03, -75.33 0.87, -71.51 436.48 80
